Black River Falls, WI

7:18 AM CDT on April 29, 2017 (GMT -0500)
Black River Falls Area

Weather History for KBCK - January, 2013

Change the Weather History Date:

Saturday, January 5, 2013

  Actual Average (KCMY) Record (KCMY)
Temperature  
Mean Temperature 18 °F -  
Max Temperature 35 °F 22 °F 54 °F (2012)
Min Temperature 0 °F 0 °F -30 °F (1972)
Degree Days  
Heating Degree Days 48    
Moisture  
Dew Point 13 °F    
Average Humidity 78    
Maximum Humidity 100    
Minimum Humidity 52    
Precipitation  
Precipitation 0.00 in - - ()
Sea Level Pressure  
Sea Level Pressure 29.98 in    
Wind  
Wind Speed 4 mph (WSW)    
Max Wind Speed 15 mph    
Max Gust Speed 21 mph    
Visibility 10 miles    
Events      
Averages and records for this station are not official NWS values.
T = Trace of Precipitation, MM = Missing Value Source: NWS Daily Summary

Daily Weather History Graph

Daily Weather History Graph

Search for Another Location

Airport or City:

Trip Planner

Search our weather history database for the weather conditions in past years. The results will help you decide how hot, cold, wet, or windy it might be!

Date:

Astronomy

Jan. 05, 2013 Rise Set
Actual Time 7:38 AM CST 4:39 PM CST
Civil Twilight 7:06 AM CST 5:12 PM CST
Nautical Twilight 6:29 AM CST 5:48 PM CST
Astronomical Twilight 5:54 AM CST 6:23 PM CST
Moon 12:37 AM CST (1/5) 11:36 AM CST (1/5)
Length of Visible Light 10h 06m
Length of Day
9h 00m
Last Quarter, 44% of the Moon is Illuminated
Jan 5
Last Quarter
Jan 11
New
Jan 18
First Quarter
Jan 26
Full
Feb 3
Last Quarter

Hourly Weather History & Observations

Time (CST) Temp. Windchill Dew Point Humidity Pressure Visibility Wind Dir Wind Speed Gust Speed Precip Events Conditions
12:15 AM 8.6 °F 2.0 °F 5.0 °F 85% 30.16 in 10.0 mi SSW 3.5 mph - N/A   Clear
12:35 AM 8.6 °F - 6.8 °F 92% 30.14 in 10.0 mi Calm Calm - N/A   Clear
1:15 AM 6.8 °F -0.1 °F 5.0 °F 92% 30.13 in 10.0 mi NE 3.5 mph - N/A   Clear
1:35 AM 8.6 °F 0.1 °F 5.0 °F 85% 30.11 in 10.0 mi NE 4.6 mph - N/A   Clear
1:55 AM 8.6 °F - 6.8 °F 92% 30.11 in 10.0 mi Calm Calm - N/A   Clear
2:15 AM 8.6 °F - 5.0 °F 85% 30.11 in 10.0 mi Calm Calm - N/A   Clear
2:35 AM 8.6 °F -3.7 °F 5.0 °F 85% 30.13 in 10.0 mi SW 8.1 mph - N/A   Clear
2:55 AM 12.2 °F 4.3 °F 12.2 °F 100% 30.16 in 7.0 mi SSW 4.6 mph - N/A   Clear
3:15 AM 12.2 °F - 10.4 °F 92% 30.15 in 10.0 mi Calm Calm - N/A   Clear
3:35 AM 10.4 °F - 6.8 °F 85% 30.13 in 10.0 mi Calm Calm - N/A   Clear
3:55 AM 5.0 °F - 3.2 °F 92% 30.12 in 10.0 mi Calm Calm - N/A   Clear
4:15 AM 5.0 °F -2.1 °F 3.2 °F 92% 30.09 in 10.0 mi East 3.5 mph - N/A   Clear
4:55 AM 5.0 °F - 3.2 °F 92% 30.07 in 10.0 mi Calm Calm - N/A   Clear
5:15 AM 3.2 °F - 1.4 °F 92% 30.07 in 10.0 mi Calm Calm - N/A   Clear
5:35 AM 3.2 °F - 1.4 °F 92% 30.07 in 10.0 mi Calm Calm - N/A   Clear
5:55 AM 3.2 °F - 1.4 °F 92% 30.06 in 7.0 mi Calm Calm - N/A   Clear
6:15 AM 3.2 °F - -0.4 °F 85% 30.07 in 7.0 mi Calm Calm - N/A   Clear
6:35 AM 1.4 °F - -4.0 °F 78% 30.06 in 10.0 mi Calm Calm - N/A   Clear
7:15 AM -0.4 °F - -4.0 °F 85% 30.07 in 10.0 mi Calm Calm - N/A   Clear
7:35 AM 1.4 °F - -4.0 °F 78% 30.06 in 10.0 mi Calm Calm - N/A   Clear
7:55 AM -0.4 °F - -4.0 °F 85% 30.05 in 10.0 mi Calm Calm - N/A   Clear
8:15 AM -0.4 °F - -4.0 °F 85% 30.04 in 10.0 mi Calm Calm - N/A   Clear
8:35 AM 1.4 °F - -2.2 °F 85% 30.04 in 10.0 mi Calm Calm - N/A   Clear
8:55 AM 3.2 °F - -0.4 °F 85% 30.04 in 10.0 mi Calm Calm - N/A   Clear
9:15 AM 5.0 °F - 1.4 °F 85% 30.03 in 10.0 mi Calm Calm - N/A   Clear
9:35 AM 6.8 °F - 3.2 °F 85% 30.03 in 10.0 mi Calm Calm - N/A   Clear
10:15 AM 14.0 °F - 12.2 °F 93% 30.01 in 10.0 mi Calm Calm - N/A   Clear
10:35 AM 19.4 °F - 19.4 °F 100% 30.01 in 10.0 mi Calm Calm - N/A   Clear
10:55 AM 21.2 °F 16.4 °F 21.2 °F 100% 30.00 in 10.0 mi South 3.5 mph - N/A   Clear
11:35 AM 30.2 °F 24.3 °F 19.4 °F 64% 29.96 in 10.0 mi SW 5.8 mph - N/A   Clear
12:15 PM 33.8 °F 27.7 °F 21.2 °F 60% 29.92 in 10.0 mi South 6.9 mph - N/A   Clear
12:35 PM 33.8 °F 27.7 °F 19.4 °F 56% 29.90 in 10.0 mi SSW 6.9 mph - N/A   Clear
12:55 PM 33.8 °F 27.7 °F 19.4 °F 56% 29.89 in 10.0 mi WSW 6.9 mph - N/A   Clear
1:15 PM 35.6 °F 29.2 °F 19.4 °F 52% 29.88 in 10.0 mi SW 8.1 mph - N/A   Clear
1:35 PM 35.6 °F 27.5 °F 19.4 °F 52% 29.87 in 10.0 mi SSW 11.5 mph 18.4 mph N/A   Clear
2:15 PM 35.6 °F 29.9 °F 21.2 °F 56% 29.86 in 10.0 mi SW 6.9 mph - N/A   Clear
2:35 PM 33.8 °F 26.4 °F 21.2 °F 60% 29.86 in 10.0 mi SW 9.2 mph 16.1 mph N/A   Clear
2:55 PM 33.8 °F 25.8 °F 21.2 °F 60% 29.86 in 10.0 mi SW 10.4 mph 16.1 mph N/A   Clear
3:15 PM 33.8 °F 26.4 °F 21.2 °F 60% 29.85 in 10.0 mi SW 9.2 mph 20.7 mph N/A   Clear
3:35 PM 32.0 °F 25.6 °F 21.2 °F 64% 29.85 in 10.0 mi SW 6.9 mph 16.1 mph N/A   Clear
3:55 PM 32.0 °F 26.4 °F 21.2 °F 64% 29.85 in 10.0 mi WSW 5.8 mph - N/A   Clear
4:15 PM 32.0 °F 26.4 °F 21.2 °F 64% 29.85 in 10.0 mi WSW 5.8 mph - N/A   Clear
4:35 PM 32.0 °F 28.7 °F 21.2 °F 64% 29.85 in 10.0 mi WSW 3.5 mph - N/A   Clear
4:55 PM 30.2 °F 24.3 °F 21.2 °F 69% 29.85 in 10.0 mi SSW 5.8 mph - N/A   Clear
5:15 PM 30.2 °F 26.7 °F 23.0 °F 75% 29.85 in 10.0 mi SW 3.5 mph - N/A   Clear
5:55 PM 32.0 °F 27.5 °F 23.0 °F 69% 29.85 in 10.0 mi SW 4.6 mph - N/A   Overcast
6:35 PM 32.0 °F 25.6 °F 24.8 °F 75% 29.85 in 10.0 mi SW 6.9 mph - N/A   Overcast
7:15 PM 32.0 °F 24.8 °F 24.8 °F 75% 29.86 in 10.0 mi West 8.1 mph - N/A   Overcast
7:35 PM 32.0 °F 24.2 °F 24.8 °F 75% 29.87 in 10.0 mi West 9.2 mph - N/A   Overcast
7:55 PM 30.2 °F 21.3 °F 23.0 °F 75% 29.87 in 10.0 mi West 10.4 mph 13.8 mph N/A   Overcast
8:15 PM 30.2 °F 19.3 °F 23.0 °F 75% 29.87 in 10.0 mi West 15.0 mph 18.4 mph N/A   Overcast
8:35 PM 30.2 °F 21.9 °F 23.0 °F 75% 29.88 in 10.0 mi West 9.2 mph 16.1 mph N/A   Overcast
8:55 PM 28.4 °F 20.4 °F 21.2 °F 74% 29.89 in 10.0 mi West 8.1 mph - N/A   Overcast
9:15 PM 28.4 °F 20.4 °F 21.2 °F 74% 29.88 in 10.0 mi WNW 8.1 mph - N/A   Overcast
9:35 PM 28.4 °F 19.7 °F 21.2 °F 74% 29.88 in 10.0 mi West 9.2 mph - N/A   Overcast
10:15 PM 26.6 °F 16.8 °F 21.2 °F 80% 29.89 in 10.0 mi West 10.4 mph - N/A   Overcast
10:35 PM 24.8 °F 15.3 °F 19.4 °F 80% 29.91 in 10.0 mi WNW 9.2 mph - N/A   Mostly Cloudy
10:55 PM 23.0 °F 14.7 °F 15.8 °F 74% 29.92 in 10.0 mi WNW 6.9 mph - N/A   Scattered Clouds
11:35 PM 23.0 °F 15.8 °F 15.8 °F 74% 29.91 in 10.0 mi NW 5.8 mph - N/A   Mostly Cloudy
11:55 PM 23.0 °F 15.8 °F 14.0 °F 68% 29.91 in 10.0 mi WNW 5.8 mph - N/A   Clear